Location: *
(48.8667°N, 2.3331°E)
Time: 23:10:51
(UTC+00:00)

Cosmos 1697 Rocket - Pass Details

Date: 09 April 2020
Orbit: 831 x 845 km, 71.0° (Epoch: 24 May)

Event Time Altitude Azimuth Distance (km) Brightness Sun altitude
Rises 21:05:30 0° 332° (NNW) 3,413 7.1 -22.5°
Reaches altitude 10° 21:07:58 10° 334° (NNW) 2,475 6.1 -22.7°
Maximum altitude 21:13:39 74° 60° (ENE) 881 2.6 -23.4°
Enters shadow 21:14:48 56° 125° (SE) 996 2.7 -23.5°
